Regional Weather Roundup
Issued by NWS Kansas City/Pleasant Hill, MO

Home | Current Version | Previous Version | Text Only | Print | Product List | Glossary On
Versions: 1 2 3 4 5 6 7 8 9 10 11 12 13 14 15 16 17 18 19 20 21 22 23 24 25 26 27
000
ASUS43 KEAX 171710
RWREAX

WEATHER ROUNDUP FOR EASTERN KANSAS AND NORTHWEST MISSOURI
NATIONAL WEATHER SERVICE KANSAS CITY/PLEASANT HILL MO
1100 AM CST TUE JAN 17 2017

KSZ040-057-103>105-MOZ028-029-037-043-171800-
...KANSAS CITY METROPOLITAN AREA...

CITY           SKY/WX    TMP DP  RH WIND       PRES   REMARKS
K.C. INTL      CLOUDY    35  32  88 W7        30.09S FOG     WCI  29
K.C. DOWNTOWN  CLOUDY    37  34  89 W8        30.11R WCI  31
LEES SUMMIT    CLOUDY    36  34  92 W9        30.11R WCI  29
OLATHE - IXD   CLOUDY    35  34  96 NW12      30.11S FOG     WCI  27
OLATHE - OJC   CLOUDY    34  34 100 NW8       30.10S WCI  27
LAWRENCE       CLOUDY    36  34  92 W9        30.13S WCI  29

$$

MOZ001>008-011>017-020>025-030>033-038>040-044>046-053-054-171800-
...NORTHERN AND CENTRAL MISSOURI...

CITY           SKY/WX    TMP DP  RH WIND       PRES   REMARKS
ST. JOSEPH     CLOUDY    34  34 100 NW10      30.11S WCI  26
MOSBY          CLOUDY    36  34  93 W9        30.10S WCI  29
WARRENSBURG    CLOUDY    36  34  93 W7        30.11R WCI  30
WHITEMAN AFB   NOT AVBL
CLINTON        CLOUDY    37  36  93 W7        30.12S WCI  32
SEDALIA        CLOUDY    38  36  92 W9        30.11R FOG     WCI  31
WARSAW         NOT AVBL
CHILLICOTHE      N/A     37  35  92 VRB5      30.08S WCI  33
KIRKSVILLE     CLOUDY    36  35  96 W8        30.03R WCI  30

$$

MOZ041-047>049-056>058-063>065-088>090-097-171800-
...EASTERN AND SOUTHERN MISSOURI...

CITY           SKY/WX    TMP DP  RH WIND       PRES   REMARKS
ST. LOUIS INTL CLOUDY    47  38  71 W14       30.03R
SPIRIT OF STL  CLOUDY    44  39  82 W14G22    30.04R
COLUMBIA       CLOUDY    38  36  92 W12       30.07R WCI  30
JEFFERSON CITY CLOUDY    40  36  86 W14       30.09R WCI  32
ROLLA          CLOUDY    39  38  96 W9        30.06R WCI  33
OSAGE BEACH    CLOUDY    40  35  83 W9        30.11R WCI  34
SPRINGFIELD    CLOUDY    38  36  92 W13       30.11R WCI  30
BRANSON        CLOUDY    39  36  87 W6        30.13R WCI  35
JOPLIN         CLOUDY    38  35  89 W8        30.17R WCI  32
WEST PLAINS    CLOUDY    40  37  89 W8        30.10F WCI  34

$$

IAZ060-094-KSZ022-034>040-054-083-096-NEZ052-066-093-171800-
...KANSAS...SOUTHEAST NEBRASKA AND IOWA...

CITY           SKY/WX    TMP DP  RH WIND       PRES   REMARKS
TOPEKA         CLOUDY    38  32  79 W6        30.12S WCI  33
MANHATTAN      CLOUDY    37  30  75 W7        30.14S WCI  32
EMPORIA        CLOUDY    37  33  85 NW8       30.14R WCI  31
CHANUTE        CLOUDY    38  34  85 W9        30.17R WCI  31
WICHITA        MOSUNNY   41  31  67 NW7       30.17R
OMAHA          CLOUDY    28  23  81 NW8       30.11R WCI  20
LINCOLN        SUNNY     31  24  75 W7        30.14R WCI  24
FALLS CITY     CLOUDY    33  31  92 W13       30.11R WCI  24
LAMONI         CLOUDY    34  32  92 W15       30.04R FOG     WCI  24
DES MOINES     DRIZZLE   35  33  92 NW16      30.03R FOG     WCI  25

$$





USA.gov is the U.S. government's official web portal to all federal, state and local government web resources and services.